Cloud_Cover
31 78 69 100 100 96 69 8 5 5 5 5 5 5 66 5 5 5 5 3 0 0 0 0 0 0 0 0 0 0 0 0 0 0 0 0 0 0 0 0 0 25 2
28 3 60 100 100 80 27 15 14 5 5 12 95 98 58 58 81 5 9 2 0 0 0 0 0 0 0 0 0 0 0 0 0 0 0 0 0 0 0 0 0 15 5
100 96 94 96 96 52 19 5 33 5 5 23 18 59 50 5 5 4 5 5 0 0 0 0 0 0 0 0 0 0 0 0 0 0 0 0 0 0 0 0 0 0 0
100 100 99 100 96 28 5 5 3 5 5 5 5 5 79 40 5 5 5 5 5 4 0 0 4 0 0 0 0 0 0 0 0 28 11 0 0 0 0 0 0 0 0
99 86 81 100 100 61 64 73 6 5 62 5 5 67 34 8 4 5 5 5 5 5 5 1 5 5 0 0 0 0 0 0 0 1 0 0 0 0 0 0 0 0 0
100 100 88 100 100 100 98 64 5 63 100 45 29 56 96 16 5 5 5 5 5 5 5 15 5 5 4 0 0 0 0 0 0 3 0 0 0 0 0 0 0 0 0
100 100 100 100 100 100 87 81 83 95 85 25 68 45 82 8 5 5 6 86 39 19 66 5 5 0 0 0 0 0 0 0 0 4 9 0 0 0 0 0 0 0 1
100 100 100 100 100 78 91 84 100 82 100 92 68 100 100 94 14 53 14 6 6 5 76 5 5 5 0 0 0 0 0 0 0 2 29 6 5 0 0 0 0 3 5
100 100 100 100 100 100 100 97 100 100 18 100 92 100 100 97 67 66 67 5 5 5 13 5 5 5 2 0 0 0 0 0 2 1 13 0 0 0 2 0 0 0 2
100 100 100 100 100 100 100 100 100 100 99 100 100 100 100 100 100 100 92 52 16 22 6 6 5 5 5 0 0 0 3 5 4 8 1 2 5 0 0 5 0 0 0
100 100 100 100 100 100 100 100 100 100 100 100 100 100 100 100 92 98 100 100 86 74 29 54 37 5 1 2 4 5 3 4 24 48 3 2 1 2 0 0 0 0 0
100 100 100 100 100 100 100 100 100 100 100 100 100 100 100 100 100 100 100 100 100 100 100 54 84 5 5 21 5 4 16 95 100 5 9 4 2 4 8 0 0 0 0
100 100 100 100 100 100 100 100 100 100 100 100 100 100 100 100 100 100 100 100 100 96 96 67 100 78 88 95 100 100 100 100 100 76 5 0 5 5 14 6 6 0 0
100 100 100 100 100 100 100 100 100 100 100 100 100 100 100 100 100 100 100 100 100 100 100 100 100 83 100 100 47 100 53 74 90 5 3 4 0 0 0 7 12 22 0
100 100 100 100 100 100 100 100 100 100 100 100 100 100 100 100 100 100 100 100 100 100 100 100 100 92 52 98 100 86 6 79 80 5 5 5 5 0 2 0 18 26 22
100 100 100 100 100 100 100 100 100 100 100 100 100 100 100 100 100 100 100 100 100 100 100 100 99 100 100 93 46 88 100 67 4 13 6 5 2 0 0 0 13 28 34
100 100 100 100 100 100 100 100 100 100 100 100 100 100 100 100 100 100 100 100 100 100 100 100 69 100 100 19 100 100 58 49 18 77 3 0 0 0 0 0 0 34 50
100 100 100 100 100 100 100 100 100 100 100 100 100 100 100 100 100 100 100 100 100 100 99 100 100 100 70 100 100 53 98 38 98 5 5 0 0 2 1 0 0 0 0
100 100 100 100 100 100 100 100 100 100 100 100 100 100 100 100 100 100 100 100 100 100 100 100 80 37 12 72 54 84 81 35 14 5 0 1 0 0 4 0 0 0 0
100 100 100 100 100 100 100 100 100 100 100 100 100 100 100 100 100 100 100 100 100 100 100 100 15 69 100 96 46 60 8 10 5 3 0 0 0 0 0 3 1 0 0
100 100 100 100 100 100 100 100 100 100 100 100 100 100 100 91 97 100 100 100 100 89 100 100 86 98 19 32 90 5 5 5 3 4 0 0 0 0 0 0 0 0 0
100 100 100 100 100 100 100 100 100 100 100 100 100 100 100 100 100 100 22 81 62 35 99 100 100 71 67 34 6 5 5 5 5 0 0 0 0 0 0 0 0 0 0
100 100 100 100 100 100 100 100 100 100 100 100 100 100 100 100 100 100 100 82 70 97 100 99 44 5 5 3 5 5 6 5 4 5 0 0 0 0 4 3 5 5 4
100 98 100 100 100 100 100 100 100 100 100 100 99 94 100 100 100 100 100 100 99 100 91 32 12 5 5 22 66 28 5 5 5 44 3 4 0 4 5 5 5 5 6
77 98 90 58 96 96 100 100 100 98 100 100 100 96 100 100 100 100 100 100 100 72 100 100 51 6 12 69 18 86 9 7 5 4 1 5 3 5 5 5 7 18 5
30 67 54 41 86 78 100 96 100 97 98 100 100 100 100 99 100 100 100 96 82 100 100 100 59 41 65 98 93 17 10 50 5 5 5 5 5 76 32 5 5 5 61